Location: Unspecified
(40.9447°N, 78.9903°W)
Time: 18:34:18
(UTC-05:00)

X-37B - Visible Passes

Search period start: 28 January 2022 00:00
Search period end: 07 February 2022 00:00
Orbit: 331 x 339 km, 45.0° (Epoch: 27 January)

Date Brightness Start Highest point End Pass type
(mag) Time Alt. Az. Time Alt. Az. Time Alt. Az.
28 Jan 0.4 19:01:45 10° WSW 19:04:30 65° NNW 19:04:30 65° NNW visible
29 Jan 2.2 19:22:25 10° W 19:24:10 28° NW 19:24:10 28° NW visible
30 Jan 0.4 18:07:11 10° WSW 18:09:59 66° NNW 18:12:34 12° ENE visible
30 Jan 3.4 19:43:07 10° WNW 19:43:47 15° WNW 19:43:47 15° WNW visible
31 Jan 1.1 18:27:52 10° W 18:30:32 39° N 18:32:10 19° NE visible
01 Feb 1.3 18:48:34 10° WNW 18:51:10 33° N 18:51:46 29° NNE visible
02 Feb 1.4 19:09:08 10° WNW 19:11:24 34° NNW 19:11:24 34° NNW visible
03 Feb 2.3 19:29:35 10° WNW 19:31:04 26° NW 19:31:04 26° NW visible
04 Feb 1.1 18:14:35 10° WNW 18:17:15 37° N 18:19:34 12° ENE visible
04 Feb 3.4 19:50:03 10° WNW 19:50:48 16° WNW 19:50:48 16° WNW visible
05 Feb 0.4 18:35:02 10° WNW 18:37:49 58° NNE 18:39:23 22° E visible
06 Feb 0.5 18:55:29 10° WNW 18:58:18 65° SSW 18:59:19 34° SE visible
